Torna al catalogo

STARLINK-32703

AttivoComunicazioniVLEO
NORAD 62996·PAYLOAD·🇺🇸 United States

Lanciato Feb 11, 2025 da Cape Canaveral Space Force Station

Loading…

Prossimi Passaggi (prossime 24 ore)

TLE

AggiornatoSource: CelesTrak SupGP

Epoca: Sep 14, 2026, 22:28 UTC

1 62996C 25031R   26257.93659722 -.00031862  00000+0 -11541-2 0  2570
2 62996  42.9993 154.8901 0001382 272.6744 114.5931 15.27593443    12

Traccia STARLINK-32703 in tempo reale con AllMySat

Download on the App Store